PulseSat

PulseSat

INTELSAT 902 (IS-902)

Last updated on Dec. 10, 2018, 12:08 a.m. UTC

1 26900U 01039A   18343.89575434  .00000037  00000-0  00000+0 0  9993
2 26900   0.0242  41.0121 0003389 238.1603 183.8447  1.00272291 63235
UTC
Height (km)
Latitude
Longitude
Inclination
Orbital Period

Next 30 passes for location: Hong Kong

Rise time Rise Azimuth (degrees) Set time Set Azimuth (degrees) Duration Max altitude (degrees)

No matching passes for this satellites

PulseSat

PulseSat is the new satellites software and hardware trackering solution by Pulsely.
Satellite Two Line Element Set source: US Air Force Space Command

Download PulseSat for iOS
© 2017 Pulsely Limited